www.pogodaiklimat.ru

Погода и климат >> Архив погоды >> Австралия >> Charleville Aero


ПОГОДА в Charleville Aero

  • Прогноз погоды в Charleville Aero
  • Монитор погоды в Charleville Aero
  • Климат города

АРХИВ ПОГОДЫ в Charleville Aero

Время (UTC), дата Ветер
(напр.,м/с)
 
Видим.   Явления Облачность Т
(С)
Тd
(С)
f
(%)
Тe
(С)
Тes
(С)
Комфортность P
(гПа)
Po
(гПа)
Тmin
(С)
Tmax
(С)
R
(мм)
S
(см)
14 14.02 Ю 2 н/о н/о +21.7 +0.3 24 +21 +21 комфорт 1009.5 975.7 +37.1
15 14.02 Ю 2 н/о н/о +20.3 +0.2 26 +21 +21 комфорт 1009.0 975.2
17 14.02 ЮВ 3 н/о н/о +18.7 +0.3 29 +19 +19 1007.9 974.1
18 14.02 штиль 0 н/о н/о +18.5 +1.1 31 +19 +19 1008.1 974.3
20 14.02 В 4 н/о н/о +21.9 +0.4 24 +21 +21 комфорт 1009.4 975.6
21 14.02 ЮВ 1 н/о н/о +22.2 +1.8 26 +22 +22 комфорт 1009.9 976.0
23 14.02 С 7 н/о н/о +29.5 +16.3 45 +33 +33 душно 1010.0 976.1
00 15.02 С 6 н/о н/о +31.0 +6.7 22 +34 +34 душно 1009.8 975.9
02 15.02 С 2 н/о н/о +35.5 +9.8 21 +34 +34 очень
жарко
1008.1 974.3 +17.0
03 15.02 С 2 н/о н/о +36.2 +9.7 20 +35 +35 очень
жарко
1007.2 973.4
05 15.02 Ю 3 н/о н/о +38.8 +5.4 13 +36 +36 очень
жарко
1005.3 971.6
06 15.02 З 3 н/о н/о +39.1 +4.5 12 +36 +36 очень
жарко
1004.6 970.9
08 15.02 Ю 4 н/о н/о +38.6 +1.6 10 +35 +35 очень
жарко
1004.6 970.9
09 15.02 Ю 2 н/о н/о +35.2 +1.5 12 +32 +32 жарко 1005.1 971.4
11 15.02 Ю 3 н/о н/о +31.4 +1.7 15 +29 +29 жарко 1006.4 972.7
12 15.02 Ю 4 н/о н/о +29.9 +0.5 15 +27 +27 жарко 1007.1 973.3
14 15.02 ЮВ 4 н/о н/о +28.8 -2.3 13 +26 +26 жарко 1007.0 973.2 +39.8
15 15.02 СЗ 3 н/о н/о +26.6 -0.4 17 +25 +25 комфорт 1006.9 973.1
17 15.02 СВ 2 н/о н/о +24.1 +0.4 21 +23 +23 комфорт 1006.5 972.8
18 15.02 С 3 н/о н/о +25.3 +5.0 27 +25 +25 комфорт 1007.1 973.3
20 15.02 С 7 н/о н/о +27.7 +18.1 56 +32 +32 очень
душно
1008.4 974.6
21 15.02 С 8 н/о н/о +28.1 +18.8 57 +33 +33 очень
душно
1009.1 975.3
23 15.02 С 7 н/о н/о +31.2 +18.9 48 +36 +36 очень
душно
1009.5 975.7
00 16.02 С 5 н/о н/о +32.9 +18.7 43 +38 +38 очень
душно
1009.3 975.5
02 16.02 С 8 н/о 4/4 1500 м
[]
+36.1 +17.7 34 +40 +42 очень
душно
1008.0 974.2 +23.3
03 16.02 С 6 н/о н/о +35.8 +16.0 31 +38 +38 очень
душно
1007.5 973.7
05 16.02 С 9 н/о 5/0
[]
+37.4 +15.2 27 +39 +40 очень
душно
1005.7 972.0
06 16.02 СЗ 7 н/о н/о +36.5 +13.3 25 +37 +37 очень
жарко
1005.4 971.7
08 16.02 С 5 н/о н/о +34.4 +15.8 33 +37 +37 очень
душно
1005.9 972.2
09 16.02 СВ 6 н/о н/о +33.8 +16.6 36 +37 +37 очень
душно
1006.9 973.1
11 16.02 С 6 н/о н/о +31.3 +16.1 40 +34 +34 душно 1008.4 974.6
12 16.02 С 7 н/о н/о +30.8 +16.4 42 +34 +34 очень
душно
1008.4 974.6
14 16.02 СВ 4 н/о н/о +26.6 +19.2 64 +32 +32 очень
душно
1009.4 975.6 +38.9
15 16.02 ЮВ 3 н/о н/о +27.0 +19.1 62 +32 +32 очень
душно
1009.5 975.7
17 16.02 СВ 5 н/о н/о +26.4 +19.3 65 +32 +32 очень
душно
1009.1 975.3
18 16.02 С 5 н/о н/о +27.1 +18.7 60 +32 +32 очень
душно
1009.1 975.3
20 16.02 С 4 н/о н/о +27.5 +18.8 59 +33 +33 очень
душно
1009.9 976.0
21 16.02 С 5 н/о н/о +27.7 +19.0 59 +33 +33 очень
душно
1010.4 976.5
23 16.02 С 7 н/о н/о +31.3 +17.9 45 +36 +36 очень
душно
1011.5 977.6
00 17.02 С 7 н/о н/о +32.5 +17.2 40 +36 +36 очень
душно
1011.4 977.5
02 17.02 З 7 н/о н/о +36.0 +16.2 31 +38 +38 очень
душно
1010.2 976.3 +26.2
03 17.02 СЗ 6 н/о н/о +37.2 +15.6 28 +39 +39 очень
душно
1009.2 975.4
05 17.02 З 5 н/о ясно +37.6 +12.9 23 +38 +45 очень
жарко
1007.5 973.7
06 17.02 СЗ 7 н/о н/о +39.9 +11.9 19 +39 +39 очень
жарко
1006.4 972.7
08 17.02 СЗ 4 н/о 9/9 1500 м
[]
+38.1 +12.0 21 +38 +38 очень
жарко
1006.0 972.3
09 17.02 СЗ 3 н/о н/о +32.3 +18.5 44 +37 +37 очень
душно
1006.3 972.6
11 17.02 В 2 н/о {туман} ясно +30.4 +19.4 52 +36 +36 очень
душно
1007.6 973.8
12 17.02 СВ 5 н/о н/о +32.5 +15.1 35 +35 +35 душно 1008.1 974.3
14 17.02 СВ 5 н/о в посл. час дождь {туман} 4/0
[]
+29.8 +16.6 45 +33 +33 душно 1007.8 974.0 +40.3
15 17.02 С 4 н/о н/о +28.9 +16.5 47 +32 +32 душно 1007.2 973.4
17 17.02 С 3 н/о {осадки} н/о +27.5 +16.5 51 +31 +31 душно 1006.1 972.4 0.2
18 17.02 С 3 н/о н/о +26.7 +16.0 52 +30 +30 душно 1006.2 972.5
20 17.02 С 4 н/о н/о +26.3 +15.4 51 +29 +29 жарко 1007.0 973.2
21 17.02 С 4 н/о н/о +27.5 +14.5 45 +30 +30 жарко 1007.6 973.8
23 17.02 СЗ 8 н/о н/о +32.7 +13.4 31 +34 +34 очень
жарко
1008.2 974.4 2
00 18.02 С 7 н/о н/о +35.3 +14.0 28 +36 +36 очень
жарко
1007.5 973.7
02 18.02 СЗ 8 н/о н/о +39.1 +14.2 23 +40 +40 очень
душно
1005.9 972.2 +25.8
03 18.02 СЗ 7 н/о н/о +38.9 +13.3 22 +39 +39 очень
жарко
1005.0 971.3
05 18.02 СЗ 6 н/о {осадки} н/о +33.0 +15.9 36 +36 +36 очень
душно
1003.2 969.6 3
06 18.02 С 3 н/о н/о +33.0 +14.6 33 +35 +35 душно 1002.9 969.3
08 18.02 СВ 7 н/о н/о +30.1 +17.5 47 +34 +34 очень
душно
1004.1 970.4
09 18.02 СВ 5 н/о н/о +27.8 +17.9 55 +32 +32 душно 1005.4 971.7
11 18.02 С 5 н/о н/о +26.2 +17.6 59 +30 +30 душно 1007.0 973.2
12 18.02 С 3 н/о н/о +25.8 +17.7 61 +30 +30 душно 1007.5 973.7
14 18.02 С 4 н/о н/о +25.4 +17.6 62 +30 +30 душно 1007.2 973.4 +40.3
15 18.02 С 3 н/о н/о +24.7 +17.9 66 +29 +29 душно 1006.5 972.8
17 18.02 З 3 н/о н/о +23.6 +17.3 68 +27 +27 жарко 1005.5 971.8
18 18.02 Ю 3 н/о н/о +24.5 +12.8 48 +26 +26 жарко 1005.6 971.9
20 18.02 Ю 4 н/о н/о +22.8 +9.9 44 +25 +25 комфорт 1006.5 972.8
21 18.02 Ю 3 н/о н/о +22.5 +8.2 40 +24 +24 комфорт 1007.6 973.8
23 18.02 Ю 6 н/о н/о +25.9 +5.5 27 +25 +25 комфорт 1008.4 974.6
00 19.02 Ю 4 н/о н/о +27.4 +5.1 24 +26 +26 жарко 1008.6 974.8
02 19.02 Ю 5 н/о н/о +28.3 +5.8 24 +27 +27 жарко 1008.2 974.4 +22.3
03 19.02 Ю 5 н/о н/о +28.4 +5.9 24 +27 +27 жарко 1007.8 974.0
05 19.02 ЮЗ 5 н/о н/о +30.4 +4.9 20 +29 +29 жарко 1005.7 972.0
06 19.02 ЮЗ 6 н/о н/о +30.2 +4.8 20 +28 +28 жарко 1006.1 972.4
08 19.02 Ю 5 н/о н/о +30.1 +3.2 18 +28 +28 жарко 1006.0 972.3
09 19.02 Ю 4 н/о н/о +28.3 +3.2 20 +27 +27 жарко 1007.0 973.2
11 19.02 ЮВ 2 н/о н/о +22.5 +2.6 27 +22 +22 комфорт 1008.9 975.1
12 19.02 Ю 3 н/о н/о +21.5 +2.7 29 +21 +21 комфорт 1009.8 975.9
14 19.02 Ю 3 н/о н/о +18.4 +2.7 35 +19 +19 1010.4 976.5 +31.4
15 19.02 Ю 2 н/о н/о +17.5 +2.7 37 +18 +18 1010.2 976.3
17 19.02 Ю 1 н/о н/о +16.8 +3.1 40 +18 +18 1010.5 976.6
18 19.02 Ю 2 н/о н/о +15.4 +3.2 44 +16 +16 1011.1 977.2
20 19.02 Ю 4 н/о н/о +16.0 +1.0 36 +16 +16 1011.6 977.7
21 19.02 ЮВ 3 н/о н/о +17.4 +0.6 32 +17 +17 1012.7 978.7
23 19.02 ЮВ 6 н/о н/о +24.5 +0.1 20 +23 +23 комфорт 1013.1 979.1
00 20.02 ЮВ 5 н/о н/о +26.0 -0.9 17 +24 +24 комфорт 1013.2 979.2
02 20.02 Ю 5 н/о н/о +28.4 -1.6 14 +26 +26 жарко 1011.6 977.7 +15.0
03 20.02 В 2 н/о н/о +29.4 -1.9 13 +26 +26 жарко 1010.6 976.7
05 20.02 Ю 3 н/о н/о +31.4 -2.6 11 +28 +28 жарко 1009.3 975.5
06 20.02 ЮЗ 4 н/о н/о +31.7 -2.3 11 +28 +28 жарко 1009.0 975.2
08 20.02 ЮЗ 3 н/о н/о +30.4 -2.2 12 +27 +27 жарко 1010.1 976.2
09 20.02 ЮЗ 3 н/о н/о +28.5 -1.6 14 +26 +26 жарко 1010.9 977.0
11 20.02 ЮВ 3 н/о н/о +26.4 -2.3 15 +24 +24 комфорт 1012.2 978.3
12 20.02 ЮВ 3 н/о н/о +24.9 -1.8 17 +23 +23 комфорт 1012.7 978.7
14 20.02 ЮВ 3 н/о н/о +22.8 -2.0 19 +22 +22 комфорт 1012.7 978.7 +32.7
15 20.02 Ю 3 н/о н/о +21.6 -1.6 21 +21 +21 комфорт 1012.5 978.6
17 20.02 Ю 2 н/о н/о +18.1 -0.2 29 +19 +19 1012.4 978.5
18 20.02 ЮВ 3 н/о н/о +19.5 0.0 27 +20 +20 1012.9 978.9
20 20.02 ЮВ 2 н/о н/о +15.9 +0.9 36 +16 +16 1013.4 979.4
21 20.02 ЮВ 2 н/о н/о +18.5 +1.1 31 +19 +19 1014.3 980.3
23 20.02 В 4 н/о н/о +28.1 +1.6 18 +26 +26 жарко 1015.1 981.1
00 21.02 СВ 5 н/о н/о +29.4 +1.0 16 +27 +27 жарко 1015.4 981.4
02 21.02 В 4 н/о н/о +31.6 -0.1 13 +28 +28 жарко 1014.2 980.2 +15.9
03 21.02 СВ 4 н/о н/о +32.5 +0.6 13 +29 +29 жарко 1013.7 979.7
06 21.02 В 4 н/о н/о +33.0 -0.2 12 +30 +30 жарко 1011.9 978.0
08 21.02 ЮВ 4 н/о н/о +32.2 -0.8 12 +29 +29 жарко 1011.9 978.0
09 21.02 ЮВ 3 н/о н/о +30.4 -1.1 13 +27 +27 жарко 1012.7 978.7
11 21.02 ЮВ 3 н/о н/о +27.0 -0.1 17 +25 +25 комфорт 1013.6 979.6

 

Местоположение метеостанции Charleville Aero (Квинсленд, Австралия): широта -26.41 долгота 146.26 высота над уровнем моря 303 м.

В архиве по умолчанию представлена погода в Charleville Aero за последнюю неделю. Архивные данные за месяц целиком и за предыдущие месяцы, начиная с января 2011 года, Вы можете получить, выбрав интересующий диапазон дат из раскрывающегося списка и нажав кнопку "Ввод!".

Внимание! Время в таблицах - всемирное. Для получения местного времени необходимо прибавить поправку, которая в Charleville Aero равна 10 ч.

Смотрите также архив погоды в соседних городах и на ближайших метеорологических станциях:

Погода в Blackall Airport (Квинсленд, Австралия) (237 км)
Погода в Roma Airport (Квинсленд, Австралия) (251 км)
Погода в St George Airport (Квинсленд, Австралия) (295 км)
Погода в Thargomindah Airport (Квинсленд, Австралия) (299 км)
Погода в Lochington (Квинсленд, Австралия) (304 км)
Погода в Rolleston Airport (Квинсленд, Австралия) (321 км)
Погода в Emerald Airport (Квинсленд, Австралия) (371 км)
Погода в Longreach Airport (Квинсленд, Австралия) (387 км)
Погода в Miles Constance Street (Квинсленд, Австралия) (391 км)
Погода в Bourke Airport Aws (Новый Южный Уэльс, Австралия) (404 км)

Пояснения к столбцам:

Ветер - указаны скорость ветра в м/с - средняя за 10 мин, порывы в срок и между сроками (в фигурных скобках) и направление, откуда дует ветер: С - северный, СВ - северо-восточный, В - восточный, ЮВ - юго-восточный, Ю - южный, ЮЗ - юго-западный, З - западный, СЗ - северо-западный.
Видимость - горизонтальная дальность видимости в метрах или километрах. При видимости от 1 до 10 км при отсутствии осадков обычно наблюдается дымка, при ухудшении видимости до 1 км и менее - туман. В сухую погоду видимость может ухудшаться дымом, пылью или мглою.
Явления - указаны атмосферные явления, наблюдавшиеся в срок или в последний час перед сроком; фигурными скобками обозначены явления, наблюдавшиеся между сроками (за 1-3 часа до срока); квадратными скобками обозначены град или гололедные отложения с указанием их диаметра в мм.
Облачность - указаны через наклонную черту общая и нижняя облачность в баллах и высота нижней границы облаков в метрах; квадратными скобками обозначены формы облаков: Ci - перистые, Cs - перисто-слоистые, Cc - перисто-кучевые, Ac - высококучевые, As - высокослоистые, Sc - слоисто-кучевые, Ns - слоисто-дождевые, Cu - кучевые, Cb - кучево-дождевые. Подробнее классификацию облаков см. в Атласе облаков (PDF).
T - Температура воздуха - температура, измеренная на высоте 2 м над землей.
Td - Температура точки росы - температура, при понижении до которой содержащийся в воздухе водяной пар достигнет насыщения.
f - Относительная влажность воздуха - влажноcть воздуха, измеренная на высоте 2 м над землей.
Te - Эффективная температура - температура, которую ощущает одетый по сезону человек в тени. Характеристика душности погоды. При расчете учитывается влияние влажности воздуха и скорости ветра на теплоощущения человека.
Tes - Эффективная температура на солнце - температура, которую ощущает человек, с поправкой на солнечный нагрев. Характеристика знойности погоды. Зависит от высоты солнца над горизонтом, облачности и скорости ветра. Ночью, в пасмурную погоду, а также при ветре 12 м/с и более поправка равна нулю.
P - Атмосферное давление - приведенное к уровню моря атмосферное давление.
Po - Атмосферное давление - измеренное на уровне метеостанции атмосферное давление.
Tmin - Минимальная температура - минимум температуры воздуха на высоте 2 м над землей.
Tmax - Максимальная температура - максимум температуры воздуха на высоте 2 м над землей.
R - Количество осадков - Количество выпавших осадков, мм. При наведении курсора мыши на число - период времени, за который выпало указанное количество осадков.
S - Снежный покров - Высота снежного покрова, см. При наведении курсора мыши на число - состояние снежного покрова и степень покрытия местности в баллах.